Regional Weather Roundup
Issued by NWS

Home | Current Version | Previous Version | Text Only | Print | Product List | Glossary Off
Versions: 1 2 3 4 5 6 7 8 9 10 11 12 13 14 15 16 17 18 19 20 21 22 23 24 25 26 27 28 29 30 31 32 33 34 35 36 37 38 39 40 41 42 43 44 45 46 47 48 49 50

000
ASUS45 KTFX 240419
RWRMT
MONTANA HOURLY WEATHER ROUNDUP
NATIONAL WEATHER SERVICE GREAT FALLS MT
1019 PM MDT WED APR 23 2014

NOTE: "FAIR" INDICATES FEW OR NO CLOUDS BELOW 12000 FEET WITH NO
SIGNIFICANT WEATHER AND/OR OBSTRUCTIONS TO VISIBILITY.

* THESE STATIONS ARE NOT UNDER NWS QUALITY CONTROL. THEY DO NOT
   REPORT WEATHER SUCH AS PRECIPITATION OR FOG.

MTZ001>007-043-240500-
WEST OF THE DIVIDE
CITY           SKY/WX    TMP DP  RH WIND       PRES   REMARKS
KALISPELL      CLOUDY    39  30  70 SW15      29.83R WCI  31
MISSOULA       LGT RAIN  39  34  82 CALM      29.90R
BUTTE          CLOUDY    36  25  64 CALM      29.86S
MULLAN PASS    FOG       27  27 100 VRB6      29.82R VSB 1 1/4 WCI  20
* ESSEX        N/A       37  24  59 S2G12      N/A
* LINCOLN      N/A       32  31  96 SW5G19     N/A   WCI  27
* LOOKOUT PASS N/A       33  29  85 N1         N/A
* POLSON       N/A       35  31  85 SE1        N/A
* RONAN APT    MOCLDY    43  30  60 SW5        N/A
* SEELEY LAKE  N/A       33  32  96 NE1        N/A
* THOMP F APT  MOCLDY    33  19  56 NW3G9      N/A
* YAAK HILL    N/A       42  30  63 E2         N/A
$$

MTZ008-052>055-240500-
SOUTHWEST MONTANA
CITY           SKY/WX    TMP DP  RH WIND       PRES   REMARKS
BOZEMAN        CLOUDY    43  27  53 W10       29.87R
DILLON         MOCLDY    37  27  67 S9        29.89R WCI  30
W YELLOWSTONE  N/A       29  24  82 SE1G7      N/A
* THREE FORKS  PTCLDY    43  27  53 W5         N/A
* BOULDER HILL N/A       34  20  57 S8G13      N/A   WCI  27
* MONIDA PASS  N/A       30  17  58 NW2G10     N/A
* RAYNOLDS PAS N/A       30  19  64 SW5        N/A   WCI  25
* WHITEHALL    N/A       39  25  57 W8G17      N/A   WCI  33
* WISE RIVER   N/A       34  25  70 W7G13      N/A   WCI  28
$$

MTZ009>010-012-014-046-048-049-054-240500-
EAST SLOPES AND CENTRAL MONTANA
CITY           SKY/WX    TMP DP  RH WIND       PRES   REMARKS
CUT BANK       CLEAR     36  23  59 W16       29.68R WCI  26
GREAT FALLS    PTCLDY    37  28  70 SW15      29.75S WCI  28
HELENA         CLOUDY    41  28  60 SW5       29.85R
MALMSTROM AFB  PTCLDY    43  27  53 SW18      29.73R
* CONRAD       CLEAR     34  27  76 N/A        N/A
* DEARBORN     N/A       42  26  53 S13G23     N/A
* EAST GLACIER N/A       35  17  48 W19G31     N/A   WCI  24
* MONARCH      N/A       35  13  40 SW15G22    N/A   WCI  25
* PENDROY      N/A       35  20  54 SW16       N/A   WCI  25
* ROGERS PASS  N/A       30  27  89 SE8G13     N/A   WCI  22
* SAINT MARY   N/A       33  26  75 S10G25     N/A   WCI  25
* SWEET GRASS  N/A       38  25  60 SW21G33    N/A   WCI  28
* WHITE SULPH  N/A       36  25  64 SW7        N/A   WCI  30
$$

MTZ011-013-016-021-035-040-045-047-050-051-240500-
NORTH CENTRAL MONTANA
CITY           SKY/WX    TMP DP  RH WIND       PRES   REMARKS
HAVRE          PTCLDY    45  25  45 SW17      29.67R
LEWISTOWN      PTCLDY    36  27  70 SW14      29.76S WCI  27
* CHINOOK      CLEAR     46  23  40 SW16G23   29.67R
* FORT BENTON  PTCLDY    43  27  53 SW13G20   29.75R
* MALTA APT    PTCLDY    45  25  45 W7        29.65R
* CHESTER      N/A       42  21  43 W17G24     N/A
* DENTON       N/A       41  18  39 SW16G21    N/A
* GEYSER       N/A       35  16  46 W8         N/A   WCI  28
* JUDITH GAP   N/A       36  25  64 W11G20     N/A   WCI  28
* LOMA         N/A       45  24  44 SW15G22    N/A
$$

MTZ017>020-022>027-061-062-240500-
NORTHEAST MONTANA
CITY           SKY/WX    TMP DP  RH WIND       PRES   REMARKS
GLASGOW        CLEAR     46  25  44 W20       29.65R
GLENDIVE       PTCLDY    45  21  38 W13       29.71R
JORDAN         PTCLDY    46  21  37 W9        29.71R
SIDNEY         CLEAR     46  25  44 W12       29.67R
WOLF POINT     CLEAR     43  19  38 W9        29.66R
* BEAVER HILL  N/A       45  21  38 SW12       N/A
* CIRCLE       N/A       46  22  39 W7         N/A
* LINDSAY DVD  N/A       44  19  37 SW14       N/A
* NAVAJO       N/A       45  28  51 NW10       N/A
* SACO         N/A       47  24  40 SW18G24    N/A
$$

MTZ028>042-056>058-240500-
SOUTHCENTRAL AND SOUTHEAST MONTANA
CITY           SKY/WX    TMP DP  RH WIND       PRES   REMARKS
BAKER          PTCLDY    45  25  45 W14       29.74R
BILLINGS       PTCLDY    43  25  49 NW14      29.81R
LIVINGSTON     CLOUDY    45  21  38 W15       29.82R
MILES CITY     CLEAR     48  19  32 W14       29.75R
* LAUREL APT   PTCLDY    37  16  42 N/A        N/A
* ROUNDUP APT  PTCLDY    43  25  49 SW8        N/A
* HYSHAM       N/A       46  15  29 NW8G16     N/A
* LAME DEER    N/A       43  17  35 W7         N/A
* REED POINT   N/A       41  22  47 W5         N/A
* ROSCOE HILL  N/A       39   9  29 W1G12      N/A
$$

REGIONAL REPORTS...DAKOTAS
CITY           SKY/WX    TMP DP  RH WIND       PRES   REMARKS
WILLISTON      PTCLDY    43  37  79 SW3       29.63R
DICKINSON      CLOUDY    37  25  62 S5        29.68R WCI  33
CROSBY         CLOUDY    43  43 100 S9        29.62R
TIOGA          PTCLDY    39  39 100 S8        29.67R WCI  33
WATFORD CITY   CLEAR     37  27  67 SW3       29.63S
BISMARCK       MOCLDY    45 N/A N/A CALM      29.71R
GRAND FORKS    LGT RAIN  39  37  93 SE18G29   29.84S WCI  30
FARGO          CLOUDY    43  37  79 SE21      29.79F
BUFFALO SD     CLOUDY    45  27  49 W12       29.69R
RAPID CITY     MOCLDY    43  30  60 N13       29.78R
$$

REGIONAL REPORTS...WYOMING/IDAHO/WASHINGTON
CITY           SKY/WX    TMP DP  RH WIND       PRES   REMARKS
GILLETTE       PTCLDY    34  21  59 W8        29.84R WCI  27
SHERIDAN       PTCLDY    36  21  54 W6        29.83R WCI  31
CODY           PTCLDY    41  19  41 SW20G29   29.86F
YELLOWSTONE LA PTCLDY    27  19  72 VRB6      29.95R WCI  20
SALMON         PTCLDY    43  21  42 W7        29.91R
MULLAN PASS    FOG       27  27 100 VRB6      29.82S VSB 1 1/4 WCI  20
SAND POINT     CLOUDY    41  41 100 CALM      29.86R
SPOKANE        CLOUDY    43  36  76 S7        29.84R
$$

REGIONAL REPORTS...ALBERTA
CITY           SKY/WX    TMP DP  RH WIND       PRES   REMARKS
CALGARY        PTCLDY    37  32  82 S5        29.62R WCI  33
LETHBRIDGE     FAIR      43  21  42 W24G31    29.62R
MEDICINE HAT   LGT RAIN  43  37  79 W21       29.62R
EDMONTON       LGT RAIN  36  32  85 NW18G29   29.57R WCI  26
WATERTON GATE  N/A       39  18  43 SW21G33    N/A   WCI  29
CARDSTON       N/A       39  19  45 W13G21     N/A   WCI  31
MILK RIVER     N/A       39  21  48 W18        N/A   WCI  30
$$

REGIONAL REPORTS...SASKATCHEWAN
CITY           SKY/WX    TMP DP  RH WIND       PRES   REMARKS
SWIFT CURRENT  MOCLDY    41  37  86 W9        29.54R
REGINA         LGT RAIN  43  43 100 SW9       29.54S
VAL MARIE      N/A       41  25  53 W9         N/A
ASSINIBOIA     N/A       41  39  93 SW8        N/A
CORONACH       N/A       41  37  86 SW6        N/A

$$




USA.gov is the U.S. government's official web portal to all federal, state and local government web resources and services.